Zurück zum Katalog

SHIYAN 6

SY-6

AktivWissenschaftSSO
NORAD 43711·PAYLOAD·🇨🇳 China

Gestartet Nov 19, 2018 von Jiuquan Satellite Launch Center

Loading…

Nächste Überflüge (nächste 24 Stunden)

TLE

AktuellSource: Space-Track

Epoche: Sep 14, 2026, 07:15 UTC

1 43711U 18094B   26257.30262282  .00003824  00000-0  13254-3 0  9990
2 43711  97.3598 270.6224 0012382 183.8514 176.2634 15.30372360435111

Verfolge SHIYAN 6 in Echtzeit mit AllMySat

Download on the App Store